Regional Weather Roundup
Issued by NWS Upton, NY

Current Version | Previous Version | Graphics & Text | Print | Product List | Glossary Off
Versions: 1 2 3 4 5 6 7 8 9 10 11 12 13 14 15 16 17 18 19 20 21 22 23 24 25 26 27 28 29 30 31 32 33 34 35 36 37 38 39 40 41 42 43 44 45 46 47 48 49 50
683 ASUS41 KOKX 241207 RWROKX REGIONAL WEATHER ROUNDUP NATIONAL WEATHER SERVICE NEW YORK NY 800 AM EDT FRI MAR 24 2017 NOTE: "FAIR" INDICATES FEW OR NO CLOUDS BELOW 12,000 FEET WITH NO SIGNIFICANT WEATHER AND/OR OBSTRUCTIONS TO VISIBILITY. NYZ071-072-176-178-NJZ106-104-241300- NEW YORK CITY METRO AREA CITY SKY/WX TMP DP RH WIND PRES REMARKS Central Park CLOUDY 38 21 50 VRB6G18 30.48F WCI 33 Wall St Helipt CLOUDY 37 28 70 SW10 30.49F WCI 30 LaGuardia APRT CLOUDY 39 25 57 SW9 30.47F WCI 33 Kennedy INTL PTSUNNY 38 31 76 SW14 30.50S WCI 30 Breezy Point N/A 36 N/A N/A SW9 N/A WCI 29 Newark/Liberty CLOUDY 36 26 67 S10 30.47F WCI 28 Teterboro CLOUDY 36 24 62 S8 30.46F WCI 30 $$ NYZ177-179-078>081-241300- LONG ISLAND NEW YORK CITY SKY/WX TMP DP RH WIND PRES REMARKS Jones Beach N/A 39 N/A N/A SW10 N/A WCI 32 Matinecock PT N/A 36 N/A N/A SW12 N/A WCI 27 Farmingdale CLOUDY 38 30 73 SW10 30.48F WCI 31 MacArthur/ISP CLOUDY 38 32 79 S9 30.47F WCI 31 Shirley CLOUDY 38 31 76 S10 30.49F WCI 31 Westhampton CLOUDY 40 31 70 SW9 30.51F WCI 34 East Hampton CLOUDY 36 29 76 CALM 30.50S Montauk N/A 40 29 64 VRB6 30.51F $$ NYZ052-065-067-241300- HUDSON VALLEY CITY SKY/WX TMP DP RH WIND PRES REMARKS White Plains PTSUNNY 34 23 64 S6 30.43F WCI 29 Newburgh CLOUDY 34 12 40 CALM 30.42F Montgomery CLOUDY 30 19 63 CALM 30.40F Poughkeepsie PTSUNNY 34 15 46 S5 30.42F WCI 30 Albany CLOUDY 34 9 35 S12G18 30.35F WCI 25 $$ NJZ001-105-106-008-010-013-015-019>022-104-241300- NEW JERSEY CITY SKY/WX TMP DP RH WIND PRES REMARKS Newark/Liberty CLOUDY 36 26 67 S10 30.47F WCI 28 Teterboro CLOUDY 36 24 62 S8 30.46F WCI 30 Caldwell CLOUDY 35 21 56 VRB5 30.46F WCI 31 Somerville CLOUDY 29 24 82 SE5 30.44F WCI 24 Linden CLOUDY 34 25 69 CALM 30.48S Sussex CLOUDY 32 17 54 SW3 30.39F Andover N/A 33 17 51 S7 30.40F WCI 27 Trenton MOSUNNY 32 26 78 S9 30.45F WCI 24 Millville CLOUDY 36 29 75 VRB3 30.48F Atlantic City MOSUNNY 37 30 75 S9 30.49F WCI 30 Wrightstown CLOUDY 31 28 86 S7 30.45F WCI 25 Toms River CLOUDY 33 30 88 S8 30.49F WCI 26 Belmar CLOUDY 34 29 82 S8 30.49S WCI 27 $$ PAZ047>061-062-071-241300- EASTERN PENNSYLVANIA CITY SKY/WX TMP DP RH WIND PRES REMARKS Philadelphia PTSUNNY 33 24 69 SW6 30.48F WCI 28 Allentown MOSUNNY 35 18 49 S9 30.41F WCI 28 Scranton CLOUDY 36 18 48 SW9 30.34R WCI 29 $$ CTZ002-004>006-009-010-012-RIZ004-006-007-MAZ004-011-015-241300- SOUTHERN NEW ENGLAND IN CT CITY SKY/WX TMP DP RH WIND PRES REMARKS Bradley INTL CLOUDY 31 21 66 S6 30.45S WCI 25 Hartford CLOUDY 34 27 75 S6 30.46F WCI 29 Danbury CLOUDY 33 23 66 S6 30.44F WCI 28 Wtrbury/Oxford PTSUNNY 32 21 64 SW5 30.44S WCI 27 Bridgeport CLOUDY 38 27 64 SW10 30.48S WCI 31 Meriden CLOUDY 34 25 69 SE5 30.46F WCI 30 New Haven PTSUNNY 37 29 72 S12 30.48S WCI 29 Chester NOT AVBL Groton CLOUDY 39 29 67 SW12 30.51R WCI 32 Wilimantic CLOUDY 29 18 63 CALM 30.48F IN RI CITY SKY/WX TMP DP RH WIND PRES REMARKS Providence CLOUDY 31 15 52 S3 30.51S Block Island CLOUDY 39 28 64 SW10 30.52R WCI 32 Westerly CLOUDY 30 23 75 CALM 30.51S IN MA CITY SKY/WX TMP DP RH WIND PRES REMARKS Boston CLOUDY 31 14 49 S8 30.49F WCI 23 Worcester CLOUDY 27 9 46 SW9 30.41F WCI 18 Westfield PTSUNNY 29 16 58 S7 30.43F WCI 22 Provincetown CLOUDY 34 20 56 S6 30.51F WCI 29 Nantucket CLOUDY 35 20 54 S8 30.54S WCI 29 $$ ANZ330-335-338-340-345-350-353-355-241300- COASTAL MARINE OBSERVATIONS STATION/POSITION TIME SKY/WX TEMP WIND PRES VSBY WAVE AIR SEA DIR/SP/G HT/PER (UTC) (F) (DEG/KT/KT) (MB) (MI) (FT/S) NY HARB ENTRANCE 1050 40 41 210/ 16/ 17 1032.6 2/ 4 20 S FIRE ISLAND 1150 40 40 200/ 16/ 19 1032.3 3/ 4 GREAT SOUTH BAY NOT AVBL 23 SSW MONTAUK P 1050 41 42 1033.7 2/ 4 15 E BARNEGAT LI 1130 42 N/A 3/ 4 HUDSON CANYON 1050 42 44 200/ 12/ 16 1034.5 2/ 3 KINGS POINT 1142 36 38 1031.9 EXECUTION ROCKS NOT AVBL CENTRAL LI SOUND 1100 38 210/ 12/ 14 N/A 1/ 3 EASTERN LI SOUND NOT AVBL ROBBINS REEF 1142 37 220/ 10/ 12 1032.4 $$ >>>>>>>>>>>>>>>>>>>>>>>>>>>> KEY <<<<<<<<<<<<<<<<<<<<<<<<<<< > < > SKY/WX - Sky Condition/Present Weather < > TMP - Temperature in Fahrenheit < > DP - Dew Point in Fahrenheit < > RH - Relative Humidity in Percent < > WIND - Direction (from) and Speed in MPH < > PRES - Mean Sea Level Pressure (inches of Hg) < > WCI - Wind Chill Index < > VSB - VISIBILITY IN MILES < > HX - HEAT INDEX < > TC - TEMPERATURE IN CELSIUS < > VRB - VARIABLE WIND DIRECTION < > < >>>>>>>>>>>>>>>>>>>>>>>>>>>> KEY <<<<<<<<<<<<<<<<<<<<<<<<<<<

USA.gov is the U.S. government's official web portal to all federal, state and local government web resources and services.